SCP
0 0 0 0 0 0 0 0 0 0 0 0 0 0 0 0 0 0 0 0 0 0 0 0 0 0 0 0 0 0 0 0 0 0 0 0 0 1 0 0 0 0 0 0
0 0 0 0 0 0 0 0 0 0 0 0 0 0 0 0 0 0 0 0 0 0 0 0 0 0 0 0 0 0 0 0 0 0 0 0 0 0 0 0 0 0 0 0
0 0 0 0 0 0 0 0 0 0 0 0 0 0 0 0 0 0 0 0 0 0 0 0 0 0 0 0 0 0 0 0 0 0 0 0 0 0 0 0 0 0 0 0
0 0 0 0 0 0 0 0 0 0 0 0 0 0 0 0 0 0 0 0 0 0 0 0 0 0 0 0 0 0 0 0 0 0 0 0 0 0 0 0 0 0 0 0
0 0 0 0 0 0 0 0 0 0 0 0 0 0 0 0 0 0 0 0 0 0 0 0 0 0 0 0 0 0 0 0 0 0 0 0 0 0 0 0 0 0 0 0
0 0 0 0 0 0 0 0 0 0 0 0 0 0 0 0 0 0 0 0 0 0 0 0 0 0 0 0 0 0 0 0 0 0 0 0 0 0 0 0 0 0 0 0
0 0 0 0 0 0 0 0 0 0 0 0 0 0 0 0 0 0 0 0 0 0 0 0 0 0 0 0 0 0 0 0 0 0 0 0 0 0 0 0 0 0 0 0
0 0 0 0 0 0 0 0 0 0 0 0 0 0 0 0 0 0 0 0 0 0 0 0 0 0 0 0 0 0 0 0 0 0 0 0 0 0 0 0 0 0 0 0
0 0 0 0 0 0 0 0 0 0 0 0 0 0 0 0 0 0 0 0 0 0 0 0 0 0 0 0 0 0 0 0 0 0 0 0 0 0 0 0 0 0 0 0
0 0 0 0 0 0 0 0 0 0 0 0 0 0 0 0 0 0 0 0 0 0 0 0 0 0 0 0 0 0 0 0 0 0 0 0 0 0 0 0 0 0 0 0
0 0 0 0 0 0 0 0 0 0 0 0 0 0 0 0 0 0 0 0 0 0 0 0 0 0 0 0 0 0 0 0 0 0 0 0 0 0 0 0 0 0 0 0
0 0 0 0 0 0 0 0 0 0 0 0 0 0 0 0 0 0 0 0 0 0 0 0 0 0 0 0 0 0 0 0 0 0 0 0 0 0 0 0 0 0 0 0
0 0 0 0 0 0 0 0 0 0 0 0 0 0 0 0 0 0 0 0 0 0 0 0 0 0 0 0 0 0 0 0 0 0 0 0 0 0 0 0 0 0 0 0
0 0 0 0 0 0 0 0 0 0 0 0 0 0 0 0 0 0 0 0 0 0 0 0 0 0 0 0 0 0 0 0 0 0 0 0 0 0 0 0 0 0 0 0
0 0 0 0 0 0 0 0 0 0 0 0 0 0 0 0 0 0 0 0 0 0 0 0 0 0 0 0 0 0 0 0 0 0 0 0 0 0 0 0 0 0 0 0
0 0 0 0 0 0 0 0 0 0 0 0 0 0 0 0 0 0 0 0 0 0 0 0 0 0 0 0 0 0 0 0 0 0 0 0 0 0 0 0 0 0 0 0
0 0 0 0 0 0 0 0 0 0 0 0 0 0 0 0 0 0 0 0 0 0 0 0 0 0 0 0 0 0 0 0 0 0 0 0 0 0 0 0 0 0 0 0
0 0 0 0 0 0 0 0 0 0 0 0 0 0 0 0 0 0 0 0 0 0 0 0 0 0 0 0 0 0 0 0 0 0 0 0 0 0 0 0 0 0 0 0
0 0 0 0 0 0 0 0 0 0 0 0 0 0 0 0 0 0 0 0 0 0 0 0 0 0 0 0 0 0 0 0 0 0 0 0 0 0 0 0 0 0 0 0
0 0 0 0 0 0 0 0 0 0 0 0 0 0 0 0 0 0 0 0 0 0 0 0 0 0 0 0 0 0 0 0 0 0 0 0 0 0 0 0 0 0 0 0
0 0 0 0 0 0 0 0 0 0 0 0 0 0 0 0 0 0 0 0 0 0 0 0 0 0 0 0 0 0 0 0 0 0 0 0 0 0 0 0 0 0 0 0
0 0 0 0 0 0 0 0 0 0 0 0 0 0 0 0 0 0 0 0 0 0 0 0 0 0 0 0 0 0 0 0 0 0 0 0 0 0 0 0 0 0 0 0
0 0 0 0 0 0 0 0 0 0 0 0 0 0 0 0 0 0 0 0 0 0 0 0 0 0 0 0 0 0 0 0 0 0 0 0 0 0 0 0 0 0 0 0
0 0 0 0 0 0 0 0 0 0 0 0 0 0 0 0 0 0 0 0 0 0 0 0 0 0 0 0 0 0 0 0 0 0 0 0 0 0 0 0 0 0 0 0
0 0 0 0 0 0 0 0 0 0 0 0 0 0 0 0 0 0 0 0 0 0 0 0 0 0 0 0 0 0 0 0 0 0 0 0 0 0 0 0 0 0 0 0
0 0 0 0 0 0 0 0 0 0 0 0 0 0 0 0 0 0 0 0 0 0 0 0 0 0 -0 -0 0 0 0 0 0 0 0 0 0 0 0 0 0 0 0 0
Wind_Speed
3 3 1 4 4 3 2 2 5 5 2 2 5 8 8 4 3 3 3 3 3 3 3 3 3 3 2 3 3 2 2 2 2 1 0 0 1 1 1 1 2 2 2 2
4 1 3 2 2 1 1 3 4 5 2 1 4 8 6 4 4 4 4 4 3 2 3 3 3 3 3 2 2 1 1 1 1 0 0 0 0 1 1 1 2 2 2 2
3 2 1 1 1 1 3 4 4 4 4 2 3 6 4 3 2 1 2 2 2 2 2 3 3 3 2 2 1 0 0 1 1 1 1 2 1 1 1 2 2 2 2 1
1 2 1 1 1 2 4 2 3 3 2 3 0 5 5 3 2 2 2 2 2 2 1 2 2 3 2 2 2 2 1 1 1 1 1 2 1 0 1 1 1 2 2 1
2 1 1 1 2 2 2 1 1 2 2 3 2 3 7 1 3 4 4 3 3 2 1 2 2 2 2 2 2 2 2 1 1 1 0 1 0 1 1 1 1 2 2 2
2 1 1 2 1 2 1 2 2 2 1 4 4 4 7 3 4 3 3 3 3 2 1 2 3 3 3 3 3 2 2 2 1 1 0 0 0 1 1 2 2 2 1 1
3 2 1 0 1 2 3 3 3 4 2 6 2 4 8 4 3 3 3 3 2 1 1 2 4 4 4 4 3 3 2 2 1 1 1 0 1 1 1 2 2 2 1 2
1 4 2 0 1 1 1 4 4 3 4 5 3 6 7 3 3 2 1 0 1 1 1 2 2 2 3 3 3 3 3 3 2 1 1 1 1 1 1 2 2 2 2 2
2 4 1 1 0 3 2 2 2 3 1 4 6 6 7 3 4 4 3 2 2 2 2 2 2 2 3 3 3 3 3 3 3 2 2 2 1 2 2 2 2 2 2 2
3 3 3 2 2 2 2 4 3 2 1 4 6 5 5 3 4 4 3 3 3 3 3 3 3 3 3 3 3 3 3 3 3 2 2 2 2 2 2 2 3 3 3 3
2 2 3 2 1 3 1 2 2 2 3 3 5 7 4 4 3 4 4 3 3 3 3 3 3 3 3 3 3 3 3 3 3 3 2 2 2 2 2 2 3 3 3 2
2 2 2 5 3 1 2 3 4 3 4 3 4 8 2 2 2 2 3 3 3 3 3 3 3 3 3 3 3 3 3 3 3 3 2 2 2 2 2 3 3 3 3 3
3 3 2 5 3 2 1 2 2 2 2 3 5 9 2 1 2 2 3 4 4 4 4 3 3 3 3 3 3 3 3 3 3 3 2 2 2 2 2 3 3 3 2 2
4 3 5 6 6 3 4 4 3 3 4 6 9 10 8 6 5 5 4 4 4 4 4 3 4 4 4 3 3 3 4 3 3 3 2 2 2 2 3 3 3 3 2 2
3 2 4 5 4 3 6 6 5 7 8 9 10 10 11 7 5 4 4 4 4 5 5 5 5 4 4 3 3 3 3 3 3 3 3 3 3 2 2 3 3 3 2 2
2 2 1 4 3 4 7 8 8 9 8 8 9 12 7 4 3 4 4 4 5 6 6 6 6 5 4 4 4 4 3 3 2 2 3 3 2 2 2 3 3 2 2 2
2 3 2 4 4 3 7 8 8 6 6 6 9 9 4 4 5 5 5 5 6 6 7 6 6 5 5 5 4 4 3 3 2 2 2 2 2 2 2 3 2 2 2 2
4 3 2 1 2 6 7 2 4 5 6 6 6 5 4 5 6 6 4 4 5 6 6 6 6 5 5 4 3 3 2 2 2 2 2 2 2 2 3 2 2 2 2 1
3 5 2 1 3 8 7 3 3 3 6 5 5 5 5 5 5 5 2 2 4 5 6 6 5 5 4 4 2 2 1 1 1 2 2 2 2 2 2 2 2 2 1 1
2 2 3 2 3 7 6 2 1 1 5 2 2 5 5 4 4 5 3 5 6 6 5 5 4 4 4 3 1 1 1 1 2 2 2 2 2 2 2 2 2 2 1 1
1 1 3 4 5 9 5 2 2 2 6 3 3 4 4 4 6 6 6 6 5 5 5 4 4 3 3 2 1 1 1 2 3 2 2 2 2 2 2 2 1 1 1 1
5 4 5 4 4 9 2 2 4 5 3 3 4 4 5 6 6 6 6 6 5 5 5 4 3 3 2 1 0 1 2 2 2 2 2 2 2 2 2 1 1 1 0 1
6 6 5 8 7 4 3 5 4 3 3 4 4 5 5 5 6 6 6 5 5 4 5 4 3 3 3 1 0 1 2 2 1 1 2 2 2 2 1 1 1 1 1 1
4 2 3 5 7 5 5 5 4 3 4 4 5 5 4 5 6 6 5 5 5 4 4 3 2 2 3 3 2 1 2 1 1 1 1 2 2 2 2 1 1 1 1 1
5 4 3 6 7 5 5 5 5 4 4 4 4 4 4 4 5 5 5 5 4 4 4 3 2 2 3 3 2 2 1 1 1 1 1 1 2 1 2 2 1 1 1 1
5 7 6 7 6 5 6 4 3 4 4 4 4 4 4 3 4 4 4 4 4 4 3 2 2 3 3 3 2 2 1 0 0 1 1 1 1 1 1 2 2 3 3 4
Wind_Direction
24 70 192 221 208 213 193 222 266 270 292 287 257 270 278 264 236 246 255 259 272 285 306 351 12 21 40 50 59 63 67 51 60 60 78 47 4 359 12 16 16 29 41 44
41 288 252 225 201 176 201 249 269 291 324 276 276 276 271 256 229 226 233 245 252 294 341 357 9 22 36 39 47 57 70 69 62 41 189 191 240 309 319 355 7 12 24 26
174 257 272 176 175 212 239 221 244 276 327 342 316 291 266 269 232 230 248 245 252 250 291 334 357 6 20 25 2 354 50 71 39 30 63 53 40 11 6 359 354 354 3 8
237 297 283 184 217 193 257 239 239 262 299 289 245 286 277 262 268 254 265 268 276 291 317 336 350 355 353 345 346 338 3 48 31 55 83 105 115 268 284 304 312 329 337 335
261 310 8 230 242 184 232 289 256 251 214 282 250 246 282 294 265 254 256 259 269 282 298 327 338 332 337 350 3 347 348 8 16 42 101 115 86 254 293 326 329 330 335 327
254 270 209 225 239 170 184 33 26 39 89 264 237 212 275 245 240 260 260 265 271 296 339 353 1 4 359 3 11 4 349 343 353 353 291 149 224 274 330 328 320 321 325 321
321 303 311 23 55 38 78 73 14 353 336 258 264 221 255 253 243 236 246 260 275 314 3 4 6 3 355 356 356 351 344 332 330 320 301 277 252 242 249 268 276 290 304 303
279 288 280 28 157 183 182 144 160 227 250 284 297 244 258 273 293 300 281 295 37 4 340 337 338 344 340 337 343 345 326 314 307 304 304 308 289 271 269 273 269 268 269 271
197 262 324 359 10 138 140 180 165 148 260 277 269 281 296 318 341 352 356 12 341 320 311 312 319 331 329 318 318 313 313 313 310 306 309 298 292 281 274 279 279 277 275 279
161 265 296 325 42 27 152 149 106 128 214 273 284 269 260 287 304 317 326 323 311 318 322 320 319 321 319 309 307 318 317 308 306 309 297 298 291 284 282 282 283 283 281 281
144 191 307 0 197 216 128 124 141 159 193 209 275 270 239 230 249 270 277 288 295 294 296 302 307 311 317 323 329 330 329 321 317 314 311 310 303 300 297 290 289 285 282 283
146 138 262 262 261 238 181 188 164 183 238 216 243 271 264 235 270 276 288 307 308 302 301 297 300 312 320 320 324 326 326 321 317 317 322 321 322 323 316 307 302 296 287 287
141 127 358 336 335 357 264 220 191 165 158 206 232 267 296 320 321 318 308 315 319 317 318 313 306 302 304 305 309 313 316 316 322 325 327 328 332 325 315 308 304 303 297 298
128 150 187 219 242 236 258 255 223 183 214 238 239 262 285 291 298 307 309 311 311 307 305 301 298 294 293 294 295 302 311 319 328 328 320 311 311 306 304 306 304 304 301 297
118 189 231 256 270 253 252 254 233 222 227 231 253 262 275 278 281 289 298 307 313 313 310 304 301 295 294 294 292 299 306 314 320 316 309 301 306 307 310 307 304 307 308 298
106 174 234 278 266 259 268 261 246 245 242 243 262 272 275 287 302 301 302 301 300 303 305 306 304 301 295 289 284 288 292 297 302 299 298 307 316 317 313 308 306 312 310 305
157 158 191 267 295 322 273 243 224 231 231 221 243 261 294 303 298 289 290 290 292 296 300 300 297 291 287 282 280 275 269 287 297 299 305 318 320 312 307 305 308 307 303 310
159 155 176 276 13 250 250 232 206 232 258 239 249 268 279 278 288 288 275 273 289 294 297 297 296 297 296 288 288 285 277 279 297 306 314 322 323 314 312 313 312 309 301 300
188 161 158 165 250 275 284 250 191 212 272 244 242 278 301 311 314 296 262 262 277 285 288 287 286 289 293 291 289 289 296 311 317 312 312 316 314 308 309 304 304 309 321 319
59 125 147 167 226 254 263 254 205 130 282 251 233 275 296 321 305 290 306 303 299 298 296 295 296 296 295 294 300 281 299 308 302 305 307 310 308 303 299 293 298 309 310 310
105 124 180 204 240 263 263 268 103 171 265 286 268 270 268 259 261 288 302 302 299 301 306 309 305 298 286 284 276 275 289 297 308 320 321 325 320 310 306 316 311 306 318 342
184 182 196 178 221 257 243 140 192 231 277 292 287 278 271 275 290 300 301 304 311 317 320 321 319 313 307 306 287 291 293 310 330 338 344 338 329 326 343 358 341 334 6 2
206 198 193 199 223 253 223 220 245 255 271 282 280 284 278 283 290 299 301 306 309 314 317 318 313 321 332 340 341 287 302 325 340 357 357 344 339 343 347 348 338 353 20 10
244 196 199 256 265 261 258 261 270 261 258 277 281 282 280 280 288 296 299 306 310 314 316 318 329 340 333 338 343 307 307 322 346 351 344 345 353 351 354 349 345 360 2 343
228 177 213 256 273 294 275 245 254 271 276 284 291 282 272 275 285 288 295 302 304 308 312 316 322 317 318 329 332 327 327 353 354 340 337 344 347 349 346 345 345 340 329 317
203 190 198 238 239 229 261 264 258 264 270 276 285 291 289 273 278 289 292 293 295 299 305 320 318 313 315 325 322 322 320 276 163 329 336 337 344 344 347 346 347 352 343 337